User: anonymous   Login
Location: Arborea
(39.7744°N, 8.5819°E)
Time: 01:06:36
(UTC+00:00)
Language:

IRAS Rocket - Orbit

View from above orbital plane
View from above orbital plane
View from above satellite
View from above satellite

Ground track
Ground track

The orbit data is extracted from the following two-line orbital elements,

1 13778U 83004B   22019.50146447  .00000054  00000-0  62418-4 0  9990
2 13778 100.0907 223.5949 0020652 323.7366  36.2399 14.09070319  2989
Epoch (UTC): 19 January 2022 12:02:06
Eccentricity: 0.0020652
inclination: 100.0907°
perigee height: 847 km
apogee height: 877 km
right ascension of ascending node: 223.5949°
argument of perigee: 323.7366°
revolutions per day: 14.09070319
mean anomaly at epoch: 36.2399°
orbit number at epoch: 298

The dashed part of the orbit path shows where the satellite is in the earth's shadow,  

DLR